Showing default

QIANFAN-36, 61569

Orbit data source: Space-Track

QIANFAN-36, 61569 is a Chinese payload satellite in LEO that was launched on Tue, 15 Oct 2024 UTC via a CHANG ZHENG 6A launch vehicle from the Taiyaun Space Center, China (TSC). Payloads include a variety of satellites, spacecraft, and rockets equipped with specific instruments for various scientific and technological missions. These include communications satellites like Starlink; space stations such as the ISS; scientific satellites like the Hubble; Earth observation satellites from companies like Planet Labs, Umbra, and HawkEye 360; GPS; miniature CubeSats for education and research; and military/defense satellites.

Loading next visibility...
QIANFAN-36 details
Identifier
61569, 2024-185T
Orbit
LEO
Last TLE update6 hours ago
Origin
Flag of CNYUANX (CN / PRC)
ManufacturerGESIH/SECM
MissionOperational spacecraft
Bus & MotorQIANFAN, Unknown motor
Mass300 kg wet, ~300 kg dry
Launch date (UTC)
2024-10-15 (3 months ago)
Launch vehicle
CHANG ZHENG 6A
Launch site
Taiyaun Space Center, China (TSC)
Object type
Payload
Rocket body
Debris
Shape & HBRUnknown
Radar Cross SectionLarge (>1 m²)

Expand to show TLE details & history

TLE from 6 hours ago
0 QIANFAN-36
1 61569U 24185T   25025.56585021  .00000930  00000-0  61864-3 0  9993
2 61569  88.9891 114.6940 0004334 244.9211 115.1518 14.00451403 24262
Epoch: 2025-01-25T13:34Z
Definitive object data (Epoch: 2025-01-25T13:34:49.458Z)
Latitude-0.00006°
Longitude145.87509°
Altitude896.598 km
Speed7.403 km/s
True Right ascension07h 38m 46s
True Declination0° 00' 00"
Sunlit
Object was in full shadow at TLE epoch
Visualization TLE readout
Latitude78.61708°
Longitude-39.15272°
Altitude908.074 km
Speed7.403 km/s
Apparent Right ascension09h 03m 08s
Apparent Declination40° 34' 13"
Sunlit
Object is in daylight
Visualization observer readout
Local Sidereal Time20:33:21
Azimuth354.276° N
Elevation-9.228°
Doppler factor1
Orbital elements
Apogee altitude892.361 km
Perigee altitude886.062 km
Semi-major axis7,267.349 km
Eccentricity0.0004334
Inclination88.9891°
RAAN114.694°
Arg. of periapsis244.9211°
True anomaly115.19674°
Mean anomaly115.1518°
Eccentric anomaly115.17427°
Mean motion3.50331 °/min
BSTAR0.00061864
Orbital period102.76 mins
Loading maneuver chart data...
Loading historical data...
Loading historical data...
Loading historical data...
Loading historical data...
Loading historical data...
Loading historical data...
Loading historical data...

QIANFAN-36 Visibility forecast

Observer location: undefined°, undefined

Span
Click to sort rows by Start time (UTC) header in descending order
Start Az.
Max El. time (UTC)
Max El. Az.
Max El.
End time (UTC)
End Az.
7 mins2025-01-25 19:19:27.107Z327.041° NNW2025-01-25 19:23:27.107Z276.533° WNW21.243°2025-01-25 19:26:27.107Z240.201° WSW
7 mins2025-01-26 05:09:27.107Z119.095° SE2025-01-26 05:12:27.107Z80.662° E22.138°2025-01-26 05:16:27.107Z30.829° NE
9 mins2025-01-26 06:51:27.107Z211.372° SW2025-01-26 06:55:27.107Z283.337° WNW34.536°2025-01-26 07:00:27.107Z345.166° N
9 mins2025-01-26 17:37:27.107Z20.249° NNE2025-01-26 17:41:27.107Z101.407° ESE37.242°2025-01-26 17:46:27.107Z161.941° S
|